Date String (YYYY-MM-DD hh:mm:ss) UTC,Instrument flags,absolute air pressure of the measurement (hPa),sample flow rate (lpm),inlet stack bypass flow (lpm),air temperature of the measurement (°C),ambient temperature measured by the external sensor (°C),aerosol sample conditioner tube jacket temperature (°C),OPC LED temperature (°C),internal box temperature (°C),relative humidity of the measurement (%),span deviation,mass concentration of particles derived from Lorenz-Mie calculation of OPC scattering (μg/m³),mass concentration of particles derived from Lorenz-Mie calculation of OPC scattering (μg/m³),mass concentration of particles derived from Lorenz-Mie calculation of OPC scattering (μg/m³)
DateTimeUTC,F1_M11,P_M11,Q1_M11,Q2_M11,T1_M11,T2_M11,T3_M11,T4_M11,T5_M11,U1_M11,ZSPAN_M11,X2_M11,X0_M11,X1_M11
2024-02-29 17:00:00,SystemResetWarning,0825.8,4.99,000.00,020.0,019.5,000.0,028.1,021.6,12.1,0000.0,0005.13,0013.85,0003.75
2024-02-29 17:01:00,SystemResetWarning,0825.8,5.00,000.00,020.0,019.5,000.0,028.1,021.6,11.6,0000.0,0005.07,0013.47,0003.72
2024-02-29 17:02:00,SystemResetWarning,0825.8,5.00,000.00,020.0,019.6,000.0,028.1,021.7,11.7,0000.0,0005.05,0012.96,0003.70
2024-02-29 17:03:00,SystemResetWarning,0825.8,5.00,000.00,020.0,019.6,000.0,028.1,021.7,11.5,0000.0,0005.00,0012.65,0003.66
2024-02-29 17:04:00,SystemResetWarning,0825.8,5.00,000.00,020.1,019.6,000.0,028.1,021.7,11.4,0000.0,0004.97,0012.47,0003.62
2024-02-29 17:05:00,SystemResetWarning,0825.8,5.00,000.00,020.1,019.6,000.0,028.1,021.7,11.3,0000.0,0004.95,0011.69,0003.60
2024-02-29 17:06:00,SystemResetWarning,0825.8,5.00,000.00,020.1,019.6,000.0,028.2,021.7,11.6,0000.0,0004.97,0011.58,0003.59
2024-02-29 17:07:00,SystemResetWarning,0825.7,5.00,000.00,020.1,019.6,000.0,028.2,021.7,11.2,0000.0,0004.93,0011.47,0003.58
2024-02-29 17:08:00,SystemResetWarning,0825.8,5.00,000.00,020.1,019.7,000.0,028.2,021.8,11.0,0000.0,0004.95,0011.64,0003.60
2024-02-29 17:09:00,SystemResetWarning,0825.7,5.00,000.00,020.1,019.7,000.0,028.2,021.8,11.2,0000.0,0004.99,0012.00,0003.63
2024-02-29 17:10:00,SystemResetWarning,0825.7,5.00,000.00,020.2,019.7,000.0,028.2,021.8,11.4,0000.0,0005.06,0011.97,0003.68
2024-02-29 17:11:00,SystemResetWarning,0825.6,5.01,000.00,020.2,019.7,000.0,028.2,021.8,11.2,0000.0,0005.18,0011.95,0003.73
2024-02-29 17:12:00,SystemResetWarning,0825.6,5.01,000.00,020.2,019.8,000.0,028.3,021.8,11.2,0000.0,0005.30,0012.75,0003.78
2024-02-29 17:13:00,SystemResetWarning,0825.6,4.99,000.00,020.2,019.8,000.0,028.3,021.9,10.9,0000.0,0005.35,0013.78,0003.83
2024-02-29 17:14:00,SystemResetWarning,0825.6,4.99,000.00,020.2,019.8,000.0,028.3,021.9,10.8,0000.0,0005.40,0013.67,0003.90
2024-02-29 17:15:00,SystemResetWarning,0825.6,4.99,000.00,020.3,019.8,000.0,028.3,021.9,10.9,0000.0,0005.47,0013.79,0003.96
2024-02-29 17:16:00,SystemResetWarning,0825.6,4.99,000.00,020.3,019.8,000.0,028.3,021.9,11.0,0000.0,0005.48,0013.97,0004.01
2024-02-29 17:17:00,SystemResetWarning,0825.6,5.00,000.00,020.3,019.8,000.0,028.4,021.9,11.0,0000.0,0005.51,0014.04,0004.06
2024-02-29 17:18:00,SystemResetWarning,0825.7,5.01,000.00,020.3,019.9,000.0,028.4,021.9,10.9,0000.0,0005.59,0014.63,0004.09
2024-02-29 17:19:00,SystemResetWarning,0825.7,5.01,000.00,020.3,019.9,000.0,028.4,022.0,11.1,0000.0,0005.63,0015.00,0004.11
2024-02-29 17:20:00,SystemResetWarning,0825.6,5.00,000.00,020.3,019.9,000.0,028.4,022.0,10.8,0000.0,0005.58,0015.25,0004.11
2024-02-29 17:21:00,SystemResetWarning,0825.6,5.00,000.00,020.4,019.9,000.0,028.4,022.0,10.6,0000.0,0005.52,0015.79,0004.10
2024-02-29 17:22:00,SystemResetWarning,0825.6,5.00,000.00,020.4,019.9,000.0,028.4,022.1,10.4,0000.0,0005.52,0016.00,0004.11
2024-02-29 17:23:00,SystemResetWarning,0825.6,4.99,000.00,020.4,020.0,000.0,028.5,022.1,10.5,0000.0,0005.50,0015.66,0004.10
2024-02-29 17:24:00,SystemResetWarning,0825.6,5.00,000.00,020.4,020.0,000.0,028.5,022.1,10.6,0000.0,0005.50,0014.61,0004.09
2024-02-29 17:25:00,SystemResetWarning,0825.6,4.99,000.00,020.4,020.0,000.0,028.5,022.1,10.3,0000.0,0005.51,0014.66,0004.08
2024-02-29 17:26:00,SystemResetWarning,0825.6,5.01,000.00,020.5,020.0,000.0,028.5,022.1,10.4,0000.0,0005.54,0014.75,0004.06
2024-02-29 17:27:00,SystemResetWarning,0825.7,5.01,000.00,020.5,020.0,000.0,028.5,022.1,09.7,0000.0,0005.54,0014.91,0004.06
2024-02-29 17:28:00,SystemResetWarning,0825.6,5.00,000.00,020.5,020.1,000.0,028.6,022.2,09.6,0000.0,0005.52,0014.73,0004.06
2024-02-29 17:29:00,SystemResetWarning,0825.6,4.99,000.00,020.5,020.1,000.0,028.6,022.2,09.6,0000.0,0005.56,0015.38,0004.08
2024-02-29 17:30:00,SystemResetWarning,0825.6,4.99,000.00,020.5,020.1,000.0,028.6,022.2,09.9,0000.0,0005.59,0016.17,0004.09
2024-02-29 17:31:00,SystemResetWarning,0825.6,5.00,000.00,020.6,020.1,000.0,028.6,022.2,10.1,0000.0,0005.63,0015.33,0004.10
2024-02-29 17:32:00,SystemResetWarning,0825.5,4.99,000.00,020.6,020.1,000.0,028.6,022.2,10.1,0000.0,0005.64,0014.62,0004.10
2024-02-29 17:33:00,SystemResetWarning,0825.4,5.00,000.00,020.6,020.2,000.0,028.6,022.2,10.1,0000.0,0005.66,0014.48,0004.11
2024-02-29 17:34:00,SystemResetWarning,0825.5,5.00,000.00,020.6,020.2,000.0,028.7,022.3,10.2,0000.0,0005.67,0014.70,0004.13
2024-02-29 17:35:00,SystemResetWarning,0825.6,5.00,000.00,020.6,020.2,000.0,028.7,022.3,10.3,0000.0,0005.65,0014.80,0004.15
2024-02-29 17:36:00,SystemResetWarning,0825.5,5.00,000.00,020.7,020.2,000.0,028.7,022.3,10.4,0000.0,0005.63,0014.83,0004.15
2024-02-29 17:37:00,SystemResetWarning,0825.5,5.00,000.00,020.7,020.2,000.0,028.7,022.3,10.4,0000.0,0005.61,0015.93,0004.17
2024-02-29 17:38:00,SystemResetWarning,0825.4,5.01,000.00,020.7,020.3,000.0,028.7,022.3,10.5,0000.0,0005.62,0016.25,0004.18
2024-02-29 17:39:00,SystemResetWarning,0825.5,5.01,000.00,020.7,020.3,000.0,028.8,022.4,10.6,0000.0,0005.64,0016.68,0004.20
2024-02-29 17:40:00,SystemResetWarning,0825.5,5.00,000.00,020.8,020.3,000.0,028.8,022.4,10.5,0000.0,0005.59,0016.66,0004.17
2024-02-29 17:41:00,SystemResetWarning,0825.4,5.01,000.00,020.8,020.3,000.0,028.8,022.5,10.6,0000.0,0005.52,0014.51,0004.13
2024-02-29 17:42:00,SystemResetWarning,0825.4,4.99,000.00,020.8,020.3,000.0,028.8,022.5,10.5,0000.0,0005.44,0013.88,0004.10
2024-02-29 17:43:00,SystemResetWarning,0825.5,4.99,000.00,020.8,020.4,000.0,028.9,022.5,10.2,0000.0,0005.40,0014.32,0004.08
2024-02-29 17:44:00,SystemResetWarning,0825.4,5.00,000.00,020.8,020.4,000.0,028.9,022.5,10.3,0000.0,0005.36,0014.37,0004.06
2024-02-29 17:45:00,SystemResetWarning,0825.4,5.00,000.00,020.9,020.4,000.0,028.9,022.5,10.6,0000.0,0005.37,0014.30,0004.05
2024-02-29 17:46:00,SystemResetWarning,0825.3,5.00,000.00,020.9,020.4,000.0,028.9,022.5,10.9,0000.0,0005.39,0014.56,0004.04
2024-02-29 17:47:00,SystemResetWarning,0825.3,5.00,000.00,020.9,020.4,000.0,028.9,022.5,11.1,0000.0,0005.46,0014.93,0004.04
2024-02-29 17:48:00,SystemResetWarning,0825.3,5.00,000.00,020.9,020.4,000.0,028.9,022.6,10.6,0000.0,0005.39,0014.72,0004.04
2024-02-29 17:49:00,SystemResetWarning,0825.3,5.00,000.00,020.9,020.5,000.0,029.0,022.6,10.6,0000.0,0005.35,0013.72,0004.02
2024-02-29 17:50:00,SystemResetWarning,0825.4,5.00,000.00,020.9,020.5,000.0,029.0,022.6,10.4,0000.0,0005.37,0013.24,0004.03
2024-02-29 17:51:00,SystemResetWarning,0825.4,4.99,000.00,021.0,020.5,000.0,029.0,022.6,10.5,0000.0,0005.37,0013.21,0004.05
2024-02-29 17:52:00,SystemResetWarning,0825.4,4.99,000.00,021.0,020.5,000.0,029.0,022.6,10.3,0000.0,0005.42,0013.96,0004.08
2024-02-29 17:53:00,SystemResetWarning,0825.4,5.00,000.00,021.0,020.6,000.0,029.0,022.7,10.4,0000.0,0005.51,0014.14,0004.13
2024-02-29 17:54:00,SystemResetWarning,0825.4,5.01,000.00,021.0,020.6,000.0,029.1,022.7,10.6,0000.0,0005.57,0014.23,0004.18
2024-02-29 17:55:00,SystemResetWarning,0825.4,5.01,000.00,021.1,020.6,000.0,029.1,022.7,10.6,0000.0,0005.59,0014.33,0004.21
2024-02-29 17:56:00,SystemResetWarning,0825.4,5.00,000.00,021.1,020.6,000.0,029.1,022.8,10.7,0000.0,0005.56,0014.13,0004.22
2024-02-29 17:57:00,SystemResetWarning,0825.4,4.99,000.00,021.1,020.7,000.0,029.1,022.8,10.7,0000.0,0005.56,0013.26,0004.24
2024-02-29 17:58:00,SystemResetWarning,0825.4,5.00,000.00,021.1,020.7,000.0,029.1,022.8,10.8,0000.0,0005.50,0012.96,0004.26
2024-02-29 17:59:00,SystemResetWarning,0825.4,5.01,000.00,021.1,020.7,000.0,029.2,022.8,10.8,0000.0,0005.51,0012.86,0004.28
